User: anonymous   Login
Location: Shenandoah County Park
(38.9356°N, 78.4524°W)
Time: 07:52:00
(UTC-05:00)
Language:

XW-2F - Orbit

View from above orbital plane
View from above orbital plane
View from above satellite
View from above satellite

Ground track
Ground track

The orbit data is extracted from the following two-line orbital elements,

1 40910U 15049M   24064.85799563  .00277424  00000-0  14022-2 0  9998
2 40910  97.4306  92.5620 0003959 186.8830 173.2384 15.80830270469460
Epoch (UTC): 04 March 2024 20:35:30
Eccentricity: 0.0003959
inclination: 97.4306°
perigee height: 325 km
apogee height: 331 km
right ascension of ascending node: 92.5620°
argument of perigee: 186.8830°
revolutions per day: 15.80830270
mean anomaly at epoch: 173.2384°
orbit number at epoch: 46946

The dashed part of the orbit path shows where the satellite is in the earth's shadow,  

DLR